Change the Weather History Date:

Saturday, March 2, 2013

  Actual Average Record
Temperature  
Mean Temperature 46 °F -  
Max Temperature 56 °F 48 °F 64 °F (1990)
Min Temperature 35 °F 31 °F 17 °F (1989)
Degree Days  
Heating Degree Days 19    
Moisture  
Dew Point 45 °F    
Average Humidity 88    
Maximum Humidity 100    
Minimum Humidity 70    
Precipitation  
Precipitation 0.09 in - - ()
Sea Level Pressure  
Sea Level Pressure 30.17 in    
Wind  
Wind Speed 8 mph (SSW)    
Max Wind Speed 22 mph    
Max Gust Speed 33 mph    
Visibility 9 miles    
Events Rain    
Averages and records for this station are not official NWS values.
T = Trace of Precipitation, MM = Missing Value Source: NWS Daily Summary

Daily Weather History Graph

Daily Weather History Graph

Search for Another Location

Airport or City:

Trip Planner

Search our weather history database for the weather conditions in past years. The results will help you decide how hot, cold, wet, or windy it might be!

Date:

Astronomy

Mar. 02, 2013 Rise Set
Actual Time 6:47 AM PST 5:57 PM PST
Civil Twilight 6:16 AM PST 6:27 PM PST
Nautical Twilight 5:41 AM PST 7:03 PM PST
Astronomical Twilight 5:06 AM PST 7:38 PM PST
Moon No Moon Rise 8:56 AM PST (3/2)
Length of Visible Light 12h 11m
Length of Day
11h 09m
Waning Gibbous, 73% of the Moon is Illuminated
Mar 2
Waning Gibbous
Mar 4
Last Quarter
Mar 11
New
Mar 19
First Quarter
Mar 27
Full

Hourly Weather History & Observations

Time (PST) Temp. Windchill Dew Point Humidity Pressure Visibility Wind Dir Wind Speed Gust Speed Precip Events Conditions
12:28 AM 44.6 °F - 44.6 °F 100% 30.29 in 2.0 mi Calm Calm - N/A   Partly Cloudy
12:38 AM 42.8 °F - 42.8 °F 100% 30.29 in 10.0 mi SE 2.3 mph - N/A   Mostly Cloudy
12:58 AM 43.3 °F 40.7 °F 43.0 °F 99% 30.31 in 10.0 mi South 4.6 mph - N/A   Mostly Cloudy
1:58 AM 47.3 °F - 46.9 °F 99% 30.30 in 10.0 mi SSE 4.6 mph - N/A   Overcast
2:58 AM 45.9 °F 43.6 °F 45.7 °F 99% 30.28 in 10.0 mi SSE 4.6 mph - N/A   Overcast
3:58 AM 46.2 °F - 45.9 °F 99% 30.25 in 10.0 mi Calm Calm - N/A   Overcast
4:58 AM 48.9 °F - 46.9 °F 93% 30.24 in 10.0 mi South 4.6 mph - N/A   Overcast
5:58 AM 48.2 °F - 46.2 °F 93% 30.23 in 10.0 mi South 4.6 mph - N/A   Overcast
6:13 AM 48.2 °F - 46.4 °F 93% 30.21 in 10.0 mi SSW 3.5 mph - N/A   Overcast
6:28 AM 48.2 °F - 46.4 °F 93% 30.21 in 10.0 mi South 3.5 mph - N/A   Overcast
6:58 AM 47.8 °F - 46.6 °F 95% 30.22 in 10.0 mi South 4.6 mph - N/A   Overcast
7:58 AM 48.4 °F - 47.7 °F 97% 30.21 in 10.0 mi South 6.9 mph - N/A   Overcast
8:58 AM 51.8 °F - 47.1 °F 84% 30.19 in 10.0 mi South 9.2 mph - N/A   Overcast
9:58 AM 54.1 °F - 46.8 °F 76% 30.19 in 10.0 mi SSW 11.5 mph - N/A   Overcast
10:58 AM 54.9 °F - 46.6 °F 74% 30.17 in 10.0 mi South 12.7 mph - N/A   Overcast
11:58 AM 55.0 °F - 46.9 °F 74% 30.16 in 10.0 mi SSW 18.4 mph 21.9 mph N/A   Overcast
12:58 PM 56.1 °F - 46.9 °F 71% 30.14 in 10.0 mi South 16.1 mph - N/A   Overcast
1:58 PM 55.9 °F - 46.4 °F 70% 30.12 in 10.0 mi SSW 15.0 mph - N/A   Overcast
2:01 PM 55.4 °F - 46.4 °F 72% 30.11 in 10.0 mi South 15.0 mph 20.7 mph N/A Rain Light Rain
2:18 PM 55.4 °F - 48.2 °F 77% 30.10 in 10.0 mi SSW 12.7 mph - N/A   Overcast
2:50 PM 53.6 °F - 48.2 °F 82% 30.10 in 10.0 mi SSW 15.0 mph 23.0 mph N/A Rain Light Rain
2:58 PM 53.8 °F - 48.4 °F 82% 30.12 in 10.0 mi SSW 11.5 mph 26.5 mph 0.00 in Rain Light Rain
3:02 PM 53.6 °F - 48.2 °F 82% 30.10 in 10.0 mi SSW 15.0 mph 26.5 mph N/A   Overcast
3:11 PM 53.6 °F - 48.2 °F 82% 30.10 in 7.0 mi SW 12.7 mph - N/A Rain Light Rain
3:23 PM 51.8 °F - 48.2 °F 88% 30.10 in 10.0 mi SSW 15.0 mph 21.9 mph N/A   Overcast
3:28 PM 51.8 °F - 50.0 °F 94% 30.10 in 10.0 mi SW 12.7 mph - N/A   Overcast
3:30 PM 51.8 °F - 50.0 °F 94% 30.10 in 8.0 mi SW 11.5 mph 21.9 mph N/A Rain Light Rain
3:32 PM 51.8 °F - 50.0 °F 94% 30.10 in 6.0 mi SW 11.5 mph 21.9 mph N/A Rain Light Rain
3:37 PM 51.8 °F - 50.0 °F 94% 30.10 in 3.0 mi SSW 12.7 mph - N/A Rain Rain
3:42 PM 51.8 °F - 50.0 °F 94% 30.10 in 2.5 mi SW 13.8 mph - N/A Rain Light Rain
3:47 PM 51.8 °F - 50.0 °F 94% 30.10 in 4.0 mi SW 10.4 mph - N/A Rain Light Rain
3:56 PM 50.0 °F - 48.2 °F 94% 30.10 in 6.0 mi West 21.9 mph 33.4 mph N/A Rain Light Rain
3:58 PM 50.0 °F - 46.4 °F 87% 30.13 in 6.0 mi WSW 19.6 mph 33.4 mph 0.08 in Rain Light Rain
4:03 PM 48.2 °F - 44.6 °F 87% 30.11 in 6.0 mi WSW 18.4 mph 33.4 mph N/A Rain Light Rain
4:07 PM 48.2 °F - 44.6 °F 87% 30.11 in 10.0 mi WSW 16.1 mph 26.5 mph N/A   Overcast
4:27 PM 48.2 °F - 42.8 °F 82% 30.11 in 10.0 mi SW 15.0 mph - N/A   Overcast
4:58 PM 46.8 °F - 42.4 °F 85% 30.13 in 10.0 mi SW 16.1 mph - 0.01 in   Overcast
5:58 PM 45.7 °F 39.1 °F 39.9 °F 80% 30.16 in 10.0 mi SW 15.0 mph 23.0 mph N/A   Mostly Cloudy
6:58 PM 43.9 °F 35.9 °F 38.1 °F 80% 30.17 in 10.0 mi SW 18.4 mph 28.8 mph N/A   Scattered Clouds
7:58 PM 41.7 °F 34.4 °F 37.9 °F 86% 30.19 in 10.0 mi SSW 13.8 mph - N/A   Clear
8:58 PM 41.5 °F 33.5 °F 37.0 °F 84% 30.20 in 10.0 mi SSW 16.1 mph - N/A   Clear
9:58 PM 38.1 °F 35.7 °F 35.6 °F 91% 30.22 in 10.0 mi Variable 3.5 mph - N/A   Partly Cloudy
10:58 PM 36.9 °F 29.1 °F 35.2 °F 94% 30.22 in 10.0 mi South 11.5 mph - N/A   Clear
11:58 PM 35.2 °F 28.8 °F 33.6 °F 94% 30.24 in 10.0 mi East 8.1 mph - N/A   Clear